N1JOV-7 Weather Reports


Display with metric or nautical units.
time (UTC)temp
F
wind
direction
speed
MPH
gust
MPH
rain 1hr
in
rain 24hr
in
rain mn
in
humidity
%
barometer
mb
20260507095102 53 262 0.0 2.0 0.00 0.00 0.00 99 1005.8
20260507094102 53 262 0.0 2.0 0.00 0.00 0.00 99 1005.8
20260507093101 53 262 0.0 2.0 0.00 0.00 0.00 99 1005.8
20260507092101 53 262 0.0 2.0 0.00 0.00 0.00 99 1005.8
20260507091101 53 262 0.0 2.0 0.00 0.00 0.00 99 1005.8
20260507085101 53 262 0.0 2.0 0.00 0.00 0.00 99 1005.8
20260507084102 53 262 0.0 2.0 0.00 0.00 0.00 99 1005.8
20260507083102 53 262 0.0 2.0 0.00 0.00 0.00 99 1005.8
20260507082102 53 262 0.0 2.0 0.00 0.00 0.00 99 1005.8
20260507081101 53 262 0.0 2.0 0.00 0.00 0.00 99 1005.8
20260507075101 53 262 0.0 2.0 0.00 0.00 0.00 99 1005.8
20260507074101 53 262 0.0 2.0 0.00 0.00 0.00 99 1005.8
20260507073101 53 262 0.0 2.0 0.00 0.00 0.00 99 1005.8
20260507072101 53 262 0.0 2.0 0.00 0.00 0.00 99 1005.8
20260507071102 53 262 0.0 2.0 0.00 0.00 0.00 99 1005.8
20260507065101 53 262 0.0 2.0 0.00 0.00 0.00 99 1005.8
20260507064101 53 262 0.0 2.0 0.00 0.00 0.00 99 1005.8
20260507063101 53 262 0.0 2.0 0.00 0.00 0.00 99 1005.8
20260507062101 53 262 0.0 2.0 0.00 0.00 0.00 99 1005.8
20260507061101 53 262 0.0 2.0 0.00 0.00 0.00 99 1005.8
20260507055101 53 262 0.0 2.0 0.00 0.00 0.00 99 1005.8
20260507054102 53 262 0.0 2.0 0.00 0.00 0.00 99 1005.8
20260507053102 53 262 0.0 2.0 0.00 0.00 0.00 99 1005.8
20260507052101 53 262 0.0 2.0 0.00 0.00 0.00 99 1005.8
20260507051101 53 262 0.0 2.0 0.00 0.00 0.00 99 1005.8
20260507045101 53 262 0.0 2.0 0.00 0.00 0.00 99 1005.8
20260507044101 53 262 0.0 2.0 0.00 0.00 0.00 99 1005.8
20260507043102 53 262 0.0 2.0 0.00 0.00 0.00 99 1005.8
20260507042102 53 262 0.0 2.0 0.00 0.00 0.00 99 1005.8
20260507041101 53 262 0.0 2.0 0.00 0.00 0.00 99 1005.8
20260507035101 53 262 0.0 2.0 0.00 0.00 0.00 99 1005.8
20260507034102 53 262 0.0 2.0 0.00 0.00 0.00 99 1005.8
20260507033101 53 262 0.0 2.0 0.00 0.00 0.00 99 1005.8
20260507032101 53 262 0.0 2.0 0.00 0.00 0.00 99 1005.8
20260507031102 53 262 0.0 2.0 0.00 0.00 0.00 99 1005.8
20260507025101 53 262 0.0 2.0 0.00 0.00 0.00 99 1005.8
20260507024101 53 262 0.0 2.0 0.00 0.00 0.00 99 1005.8
20260507023101 53 262 0.0 2.0 0.00 0.00 0.00 99 1005.8
20260507022101 53 262 0.0 2.0 0.00 0.00 0.00 99 1005.8
20260507021101 53 262 0.0 2.0 0.00 0.00 0.00 99 1005.8
20260507015102 53 262 0.0 2.0 0.00 0.00 0.00 99 1005.8
20260507014102 53 262 0.0 2.0 0.00 0.00 0.00 99 1005.8
20260507013102 53 262 0.0 2.0 0.00 0.00 0.00 99 1005.8
20260507012101 53 262 0.0 2.0 0.00 0.00 0.00 99 1005.8
20260507011101 53 262 0.0 2.0 0.00 0.00 0.00 99 1005.8
20260507010101 53 262 0.0 2.0 0.00 0.00 0.00 99 1005.8
20260507005101 53 262 0.0 2.0 0.00 0.00 0.00 99 1005.8
20260507004101 53 262 0.0 2.0 0.00 0.00 0.00 99 1005.8
20260507003101 53 262 0.0 2.0 0.00 0.00 0.00 99 1005.8
20260507002102 53 262 0.0 2.0 0.00 0.00 0.00 99 1005.8
20260507001102 53 262 0.0 2.0 0.00 0.00 0.00 99 1005.8
20260506235101 53 227 0.0 3.0 0.00 0.00 0.00 99 1005.8
20260506234101 53 246 0.0 7.0 0.00 0.00 0.00 99 1006.1
20260506233101 53 227 0.0 11.0 0.00 0.00 0.00 99 1006.1
20260506232101 53 243 0.0 6.0 0.00 0.00 0.00 99 1006.2
20260506231102 53 195 0.0 12.0 0.00 0.00 0.00 99 1006.2
20260506225102 53 251 0.0 4.0 0.05 0.00 0.00 99 1006.3
20260506224101 53 265 0.0 12.0 0.03 0.00 0.00 99 1006.3
20260506223101 53 226 0.0 9.0 0.05 0.00 0.00 99 1006.5
20260506222101 53 310 0.0 3.0 0.05 0.00 0.00 99 1006.7
20260506221101 53 216 0.0 8.0 0.03 0.00 0.00 99 1006.7
20260506220101 53 238 0.0 2.0 0.09 0.00 0.00 99 1006.7
20260506215102 53 261 0.0 3.0 0.08 0.00 0.00 99 1006.8
20260506214238 52 248 0.0 4.0 0.00 0.00 0.00 99 1006.8